This is the latest recevied weather packets stored in our database for station/object DW2488. If no packets are shown the sender has not sent any weather packets the latest 10 day(s).
| Time | Temp. | Humidity | Pressure | Rain* | Wind** | Luminosity | Snow |
|---|---|---|---|---|---|---|---|
| 1778127731 | 14.44° C | 37% | 1015.1 hPa | 0 mm | - | 97 W/m² | - |
| 1778126832 | 15.56° C | 35% | 1015.1 hPa | 0 mm | - | 135 W/m² | - |
| 1778125931 | 15.56° C | 35% | 1014.8 hPa | 0 mm | - | 631 W/m² | - |
| 1778125032 | 15.56° C | 36% | 1014.7 hPa | 0 mm | - | 529 W/m² | - |
| 1778124133 | 15.56° C | 36% | 1014.5 hPa | 0 mm | - | 580 W/m² | - |
| 1778123232 | 16.11° C | 33% | 1014.5 hPa | 0 mm | - | 605 W/m² | - |
| 1778122331 | 15.56° C | 34% | 1014.4 hPa | 0 mm | - | 647 W/m² | - |
| 1778121430 | 16.11° C | 33% | 1014.5 hPa | 0 mm | - | 661 W/m² | - |
| 1778120523 | 16.11° C | 32% | 1014.6 hPa | 0 mm | - | 684 W/m² | - |
| 1778119624 | 16.11° C | 31% | 1014.6 hPa | 0 mm | - | 684 W/m² | - |
| 1778118719 | 15.56° C | 31% | 1014.7 hPa | 0 mm | - | 677 W/m² | - |
| 1778117817 | 15.56° C | 31% | 1015 hPa | 0 mm | - | 670 W/m² | - |
| 1778116921 | 15.56° C | 29% | 1015.2 hPa | 0 mm | - | 656 W/m² | - |
| 1778116446 | 15.56° C | 31% | 1015.2 hPa | 0 mm | - | 640 W/m² | - |
| 1778115111 | 15.56° C | 36% | 1015 hPa | 0 mm | - | 622 W/m² | - |
| 1778114215 | 15° C | 45% | 1015.1 hPa | 0 mm | - | 605 W/m² | - |
| 1778113307 | 14.44° C | 51% | 1014.9 hPa | 0 mm | - | 262 W/m² | - |
| 1778112405 | 14.44° C | 55% | 1014.9 hPa | 0 mm | - | 255 W/m² | - |
| 1778111504 | 14.44° C | 60% | 1014.9 hPa | 0 mm | - | 134 W/m² | - |
| 1778110596 | 15.56° C | 58% | 1014.3 hPa | 0 mm | - | 178 W/m² | - |
| 1778109695 | 15.56° C | 61% | 1014.1 hPa | 0 mm | - | 221 W/m² | - |
| 1778108806 | 16.67° C | 60% | 1014 hPa | 0 mm | - | 156 W/m² | - |
| 1778107894 | 15.56° C | 62% | 1013.9 hPa | 0 mm | - | 404 W/m² | - |
| 1778106988 | 15° C | 62% | 1014 hPa | 0 mm | - | 90 W/m² | - |
| 1778106089 | 14.44° C | 65% | 1013.8 hPa | 0 mm | - | 33 W/m² | - |
* Rain latest hour (hover to see other rain measurements)
** Current wind speed in m/s (hover to see current wind gust speed)